www.pogodaiklimat.ru

Погода и климат >> Архив погоды >> Турция >> Аэропорт GAP


ПОГОДА в Аэропорту GAP

  • Прогноз погоды в Аэропорту GAP
  • Монитор погоды в Аэропорту GAP

АРХИВ ПОГОДЫ в Аэропорту GAP

Время (UTC), дата Ветер
(напр.,м/с)
 
Видим.   Явления Облачность Т
(С)
Тd
(С)
f
(%)
Тe
(С)
Тes
(С)
Комфортность P
(гПа)
Po
(гПа)
Тmin
(С)
Tmax
(С)
R
(мм)
R24
(мм)
S
(см)
06 14.05 С 5
{7}
10 км ясно +22.9 +12.6 52 +26 +32 жарко 1013.5 922.7 +14.8
09 14.05 СВ 3
{8}
10 км ясно +27.9 +8.6 30 +28 +44 жарко 1012.9 922.7
12 14.05 Ю 3
{8}
10 км ясно +30.0 +9.3 28 +30 +42 жарко 1011.1 921.4
15 14.05 С 3
{6}
10 км ясно +28.0 +10.1 33 +28 +30 жарко 1011.3 920.8
18 14.05 В 3
{6}
10 км ясно +22.8 +8.4 40 +24 +24 комфорт 1011.9 921.7 +30.2
21 14.05 СВ 3
{4}
10 км ясно +22.3 +9.1 43 +24 +24 комфорт 1011.3 921.8
00 15.05 С 4
{5}
10 км ясно +18.3 +8.7 53 +18 +18 1011.2 921.4
03 15.05 С 6
{7}
10 км ясно +18.3 +9.3 56 +18 +18 1011.4 921.3
06 15.05 С 4
{7}
10 км ясно +26.6 +8.2 31 +27 +33 жарко 1012.1 922.4 +16.4
09 15.05 С 4
{8}
10 км ясно +29.8 +3.6 19 +28 +41 жарко 1011.1 921.9
12 15.05 С 3
{8}
10 км ясно +31.1 +3.7 18 +29 +41 жарко 1010.1 920.6
15 15.05 З 4
{6}
10 км ясно +29.6 +6.1 23 +28 +30 жарко 1009.3 919.6
18 15.05 С 2
{6}
10 км ясно +26.9 +5.2 25 +26 +26 жарко 1008.9 920.1 +31.8
21 15.05 В 4
{5}
10 км ясно +22.8 +5.1 32 +23 +23 комфорт 1008.6 919.7
00 16.05 С 4
{5}
10 км ясно +19.2 +4.2 37 +20 +20 1008.0 918.8
03 16.05 С 5 10 км ясно +24.9 +7.6 33 +25 +25 комфорт 1008.1 918.9
06 16.05 С 3
{7}
10 км ясно +27.4 +7.1 28 +27 +35 жарко 1007.8 919.2 +17.4
09 16.05 С 3
{6}
10 км ясно +31.2 +4.2 18 +29 +47 жарко 1007.6 919.0
12 16.05 СВ 3
{6}
10 км ясно +32.0 +2.4 15 +29 +42 жарко 1006.6 917.7
15 16.05 СВ 3
{6}
10 км ясно +30.5 +7.2 23 +29 +31 жарко 1005.8 916.7
18 16.05 СВ 4
{6}
10 км 3/3 1200 м
[Cu hum]
+25.4 +5.7 28 +25 +25 комфорт 1005.8 917.2 +32.9
21 16.05 В 4
{5}
10 км ясно +23.7 +5.0 30 +24 +24 комфорт 1005.6 917.3
00 17.05 С 4
{5}
10 км ясно +20.7 +8.0 44 +22 +22 комфорт 1005.3 916.7
03 17.05 СВ 5
{6}
10 км 3/3 1200 м
[Cu hum]
+21.2 +6.2 38 +22 +22 комфорт 1005.2 916.5
06 17.05 С 3
{6}
10 км ясно +26.1 +9.4 35 +27 +35 жарко 1006.2 917.3 +18.2
09 17.05 В 7
{10}
10 км ясно +32.1 +6.3 20 +30 +37 жарко 1004.9 916.8
12 17.05 В 7
{11}
10 км ясно +33.0 +6.0 19 +31 +35 жарко 1003.5 915.2
15 17.05 В 8
{11}
10 км ясно +30.7 +6.2 21 +29 +29 жарко 1002.3 913.8
18 17.05 ЮВ 4
{11}
10 км ясно +25.0 +7.6 33 +25 +25 комфорт 1003.1 914.5 +33.3
21 17.05 В 3
{5}
10 км ясно +23.5 +7.2 35 +24 +24 комфорт 1002.6 914.7
00 18.05 В 5
{5}
10 км ясно +20.9 +7.9 43 +22 +22 комфорт 1001.6 913.5
03 18.05 ЮВ 3
{6}
10 км ясно +18.1 +7.6 50 +18 +19 1003.0 914.0
06 18.05 ЮЗ 4
{7}
10 км ясно +24.8 +9.3 37 +25 +33 комфорт 1004.0 915.1 +17.7
09 18.05 З 3
{7}
10 км 4/0
[Ci fib]
+28.0 +3.0 20 +26 +41 жарко 1003.6 915.0
12 18.05 Ю 6
{11}
10 км 4/0
[Ci fib]
+29.4 +6.6 24 +28 +34 жарко 1003.1 914.3
15 18.05 З 7
{11}
10 км ясно +25.9 +7.7 31 +26 +26 жарко 1004.0 914.2
18 18.05 З 8
{12}
10 км ясно +19.9 +1.8 30 +20 +20 1005.8 916.0 +30.1
21 18.05 Ю 3
{12}
10 км ясно +15.1 +4.1 48 +15 +15 1007.2 917.0
00 19.05 ЮЗ 3
{12}
10 км ясно +13.1 +5.4 60 +12 +12 1007.1 916.8
03 19.05 СЗ 3
{6}
10 км ясно +13.1 +6.9 66 +12 +12 1008.2 917.3
06 19.05 ЮЗ 2
{6}
10 км 4/0
[Ci fib]
+19.3 +6.3 43 +20 +30 1009.3 918.3 +12.2
09 19.05 Ю 3
{7}
10 км 4/0
[Ci sp]
+23.0 +2.7 26 +23 +38 комфорт 1009.4 918.2
12 19.05 С 3
{7}
10 км 4/0
[Ci sp]
+25.3 +1.1 21 +24 +36 комфорт 1008.0 917.0
15 19.05 З 5
{8}
10 км ясно +24.6 +1.4 22 +23 +25 комфорт 1007.8 916.7
18 19.05 СЗ 2
{8}
10 км ясно +21.2 +6.2 38 +22 +22 комфорт 1008.0 917.3 +26.6
21 19.05 З 4
{8}
10 км ясно +17.5 +10.5 63 +17 +17 1009.0 918.2
00 20.05 СЗ 4
{8}
10 км ясно +16.7 +7.5 55 +16 +16 1009.5 918.9
03 20.05 СЗ 6
{8}
10 км ясно +18.4 +5.0 41 +18 +18 1009.5 919.1
06 20.05 СЗ 8
{13}
10 км ясно +23.7 +6.0 32 +24 +25 комфорт 1010.1 919.9 +16.1
09 20.05 З 6
{12}
10 км ясно +26.1 +6.3 28 +26 +35 жарко 1011.0 920.5
12 20.05 З 6
{12}
10 км ясно +27.8 +4.0 22 +26 +32 жарко 1010.2 919.9
15 20.05 З 5
{10}
10 км 5/3 1200 м
[Cu hum Ac lent]
+25.6 +6.2 29 +25 +26 комфорт 1009.5 919.2
18 20.05 ЮЗ 3
{10}
10 км 1/1 1200 м
[Cu hum]
+20.7 +9.3 48 +23 +23 комфорт 1010.0 919.7 +28.5
21 20.05 З 4
{8}
10 км ясно +18.3 +10.7 61 +19 +19 1010.8 920.5
00 21.05 З 3
{8}
10 км ясно +16.7 +9.7 63 +17 +17 1010.9 920.6

 

Местоположение метеостанции Аэропорт GAP (Турция): широта 37.43 долгота 38.90 высота над уровнем моря 822 м.

В архиве по умолчанию представлена погода в Аэропорту GAP за последнюю неделю. Архивные данные за месяц целиком и за предыдущие месяцы, начиная с января 2011 года, Вы можете получить, выбрав интересующий диапазон дат из раскрывающегося списка и нажав кнопку "Ввод!".


*Определитесь, кто Вы:
робот инопланетянин человек

Внимание! Время в таблицах - всемирное. Для получения местного времени необходимо прибавить поправку, которая равна 2 ч.

Смотрите также архив погоды в соседних городах и на ближайших метеорологических станциях:

Погода в Шанлыурфе (Турция) (35 км)
Погода в Адыямане (Турция) (65 км)
Погода в Эт-Телль-эль-Абьяде (Сирия) (81 км)
Погода в Аэропорту Малатья Тулга (Турция) (117 км)
Погода в Диярбакыре (Турция) (123 км)
Погода в Аэропорту Малатья (Турция) (132 км)
Погода в Элязыге (Турция) (134 км)
Погода в Газиантепе (Турция) (141 км)
Погода в Газиантепе (Турция) (143 км)
Погода в Мардине (Турция) (162 км)

Пояснения к столбцам:

Ветер - указаны скорость ветра в м/с - средняя за 10 мин, порывы в срок и между сроками (в фигурных скобках) и направление, откуда дует ветер: С - северный, СВ - северо-восточный, В - восточный, ЮВ - юго-восточный, Ю - южный, ЮЗ - юго-западный, З - западный, СЗ - северо-западный.
Видимость - горизонтальная дальность видимости в метрах или километрах. При видимости от 1 до 10 км при отсутствии осадков обычно наблюдается дымка, при ухудшении видимости до 1 км и менее - туман. В сухую погоду видимость может ухудшаться дымом, пылью или мглою.
Явления - указаны атмосферные явления, наблюдавшиеся в срок или в последний час перед сроком; фигурными скобками обозначены явления, наблюдавшиеся между сроками (за 1-3 часа до срока); квадратными скобками обозначены град или гололедные отложения с указанием их диаметра в мм.
Облачность - указаны через наклонную черту общая и нижняя облачность в баллах и высота нижней границы облаков в метрах; квадратными скобками обозначены формы облаков: Ci - перистые, Cs - перисто-слоистые, Cc - перисто-кучевые, Ac - высококучевые, As - высокослоистые, Sc - слоисто-кучевые, Ns - слоисто-дождевые, Cu - кучевые, Cb - кучево-дождевые. Подробнее классификацию облаков см. в Атласе облаков (PDF).
T - Температура воздуха - температура, измеренная на высоте 2 м над землей.
Td - Температура точки росы - температура, при понижении до которой содержащийся в воздухе водяной пар достигнет насыщения.
f - Относительная влажность воздуха - влажноcть воздуха, измеренная на высоте 2 м над землей.
Te - Эффективная температура - температура, которую ощущает одетый по сезону человек в тени. Характеристика душности погоды. При расчете учитывается влияние влажности воздуха и скорости ветра на теплоощущения человека.
Tes - Эффективная температура на солнце - температура, которую ощущает человек, с поправкой на солнечный нагрев. Характеристика знойности погоды. Зависит от высоты солнца над горизонтом, облачности и скорости ветра. Ночью, в пасмурную погоду, а также при ветре 12 м/с и более поправка равна нулю.
P - Атмосферное давление - приведенное к уровню моря атмосферное давление.
Po - Атмосферное давление - измеренное на уровне метеостанции атмосферное давление.
Tmin - Минимальная температура - минимум температуры воздуха на высоте 2 м над землей.
Tmax - Максимальная температура - максимум температуры воздуха на высоте 2 м над землей.
R - Количество осадков - Количество выпавших осадков за период времени, мм. При наведении курсора мыши на число - период времени, за который выпало указанное количество осадков.
R24 - Количество осадков - Количество выпавших осадков за 24 часа, мм.
S - Снежный покров - Высота снежного покрова, см. При наведении курсора мыши на число - состояние снежного покрова и степень покрытия местности в баллах.